Terug naar catalogus

STARLINK-36152

ActiefCommunicatieVLEO
NORAD 66968·PAYLOAD·🇺🇸 United States

Gelanceerd Dec 8, 2025 vanaf Cape Canaveral Space Force Station

Loading…

Volgende Passages (komende 24 uur)

TLE

VersSource: CelesTrak SupGP

Epoch: Sep 15, 2026, 03:47 UTC

1 66968C 25288K   26258.15812500 -.00002133  00000+0 -77246-4 0  2583
2 66968  43.0045  33.6634 0001912 273.0864   9.1506 15.27590188    19

Volg STARLINK-36152 in realtime met AllMySat

Download on the App Store